Location: Bridgewater
(44.3670°N, 64.5170°W)
Time: 06:25:50
(UTC-04:00)

Amateur Radio Satellites - All Passes

Search period start: 18 November 2017 05:55
Search period end: 19 November 2017 05:55
Location: Bridgewater, 44.3670°N, 64.5170°W

Satellite Date Start Highest point End Downlink Frequencies (MHz)
Time Altitude Azimuth
YUBILEINY 18 Nov 05:58:03 06:06:40 67° 93° (E) 06:15:23 435.215
BEESAT 2 18 Nov 06:06:13 06:09:30 23° 317° (NW) 06:12:48 435.950
FO-29 18 Nov 06:06:38 06:10:20 15° 49° (NE) 06:14:12 435.910
KAITUO 1B 18 Nov 06:07:05 06:10:27 31° 97° (E) 06:13:49 145.475/437.950
ITAMSAT 1 18 Nov 06:11:17 06:12:49 11° 306° (NW) 06:14:20 435.822/435.867
XW-2D 18 Nov 06:12:17 06:16:00 52° 100° (E) 06:19:43 145.860 - 145.880
AO-7 18 Nov 06:12:49 06:19:02 24° 310° (NW) 06:25:15 .
HO-68 18 Nov 06:16:02 06:21:27 22° 91° (E) 06:26:49 435.675
SO-50 18 Nov 06:25:37 06:29:41 29° 43° (NE) 06:33:47 436.795
RS-15 18 Nov 06:25:58 06:35:22 30° 258° (WSW) 06:44:26 29.354- 29.394
XW-2B 18 Nov 06:26:55 06:30:43 76° 102° (ESE) 06:34:31 145.730 - 145.750
AO-85 18 Nov 06:34:39 06:38:03 27° 316° (NW) 06:41:38 145.980
DOVE 4 18 Nov 06:37:38 06:41:53 25° 296° (WNW) 06:46:00 437.250
LilacSat-2 18 Nov 06:49:47 06:53:30 51° 287° (WNW) 06:57:14 437.200
XW-2C 18 Nov 06:52:23 06:56:04 51° 287° (WNW) 06:59:47 145.795 - 145.815
NUDT-PHONESAT 18 Nov 06:57:56 07:01:35 64° 286° (WNW) 07:05:15 437.300
UWE-3 18 Nov 06:59:51 07:01:47 13° 90° (E) 07:03:42 435.000/436.395/437.385
XW-2F 18 Nov 07:06:40 07:10:10 37° 289° (WNW) 07:13:41 145.980 - 146.000
CUTE 1.7 + AOD 2 18 Nov 07:11:05 07:15:17 54° 99° (E) 07:19:28 437.475
CUTE-I 18 Nov 07:14:31 07:19:49 60° 289° (WNW) 07:25:04 437.470
STRAND 1 18 Nov 07:21:23 07:26:24 52° 260° (W) 07:31:27 437.568
CUBEBUG 2 18 Nov 07:30:07 07:34:13 49° 99° (E) 07:38:14 437.445
KAITUO 1B 18 Nov 07:41:27 07:44:15 20° 293° (WNW) 07:47:02 145.475/437.950
XW-2A 18 Nov 07:42:48 07:45:53 33° 98° (E) 07:48:57 145.665 - 145.685
FO-29 18 Nov 07:47:27 07:53:53 68° 71° (ENE) 08:01:10 435.910
XW-2D 18 Nov 07:47:54 07:49:44 13° 297° (WNW) 07:51:35 145.860 - 145.880
SEEDS 18 Nov 07:48:38 07:52:54 86° 103° (ESE) 07:57:09 437.485
AO-73 18 Nov 07:50:35 07:53:48 22° 94° (E) 07:57:00 145.935
YUBILEINY 18 Nov 07:56:48 08:04:11 30° 295° (WNW) 08:11:40 435.215
HO-68 18 Nov 08:02:38 08:09:50 74° 290° (WNW) 08:16:58 435.675
SO-50 18 Nov 08:05:53 08:10:16 42° 242° (WSW) 08:14:42 436.795
AAUSAT CUBESAT 2 18 Nov 08:06:25 08:10:34 59° 100° (E) 08:14:42 437.432
PCSat 18 Nov 08:09:17 08:12:12 14° 33° (NNE) 08:15:07 145.827
Oscar 11 18 Nov 08:10:52 08:14:29 25° 94° (E) 08:18:04 .
ZACube-1 18 Nov 08:32:47 08:36:56 73° 102° (ESE) 08:41:03 437.345
UWE-3 18 Nov 08:34:32 08:38:37 56° 287° (WNW) 08:42:40 435.000/436.395/437.385
CUTE 1.7 + AOD 2 18 Nov 08:48:07 08:50:41 16° 297° (WNW) 08:53:16 437.475
UNISAT 6 18 Nov 09:03:05 09:07:40 66° 74° (ENE) 09:12:09 437.425
CUBEBUG 2 18 Nov 09:07:50 09:10:27 16° 297° (WNW) 09:13:01 437.445
TIGRISAT 18 Nov 09:08:25 09:13:00 69° 74° (ENE) 09:17:30 435.000
DELFI C3 18 Nov 09:10:38 09:13:51 23° 94° (E) 09:17:02 145.870
XW-2A 18 Nov 09:16:22 09:18:18 15° 294° (WNW) 09:20:15 145.665 - 145.685
Max Valier Satellite 18 Nov 09:26:05 09:29:01 22° 95° (E) 09:31:55 145.860
AO-73 18 Nov 09:26:23 09:30:06 33° 290° (WNW) 09:33:49 145.935
SEEDS 18 Nov 09:27:07 09:27:54 10° 300° (WNW) 09:28:40 437.485
PRISM 18 Nov 09:31:35 09:35:32 47° 71° (ENE) 09:39:32 437.425
EO-88 18 Nov 09:32:51 09:35:30 19° 93° (E) 09:38:08 145.990 - 145.960
FO-29 18 Nov 09:34:32 09:39:38 24° 272° (W) 09:45:12 435.910
AAUSAT CUBESAT 2 18 Nov 09:43:17 09:45:32 14° 297° (WNW) 09:47:47 437.432
Oscar 11 18 Nov 09:46:47 09:50:37 31° 291° (WNW) 09:54:26 .
PCSat 18 Nov 09:51:22 09:56:45 61° 55° (NE) 10:02:06 145.827
HO-68 18 Nov 09:52:09 09:56:22 17° 310° (NW) 10:00:36 435.675
AIST 2D 18 Nov 10:02:51 10:05:46 26° 70° (ENE) 10:08:43 435.315
ZACube-1 18 Nov 10:11:12 10:12:38 12° 299° (WNW) 10:14:03 437.345
QB50P2 18 Nov 10:12:50 10:15:41 18° 64° (ENE) 10:18:34 145.880/145.840
ESTCUBE 1 18 Nov 10:29:51 10:30:22 10° 88° (E) 10:30:53 437.505/2401.250
UNISAT 6 18 Nov 10:42:30 10:44:46 13° 270° (W) 10:47:01 437.425
DELFI C3 18 Nov 10:45:05 10:48:35 30° 291° (WNW) 10:52:05 145.870
TIGRISAT 18 Nov 10:48:00 10:50:06 13° 270° (W) 10:52:12 435.000
Max Valier Satellite 18 Nov 10:59:44 11:02:47 25° 291° (WNW) 11:05:50 145.860
EO-88 18 Nov 11:05:58 11:09:11 30° 290° (WNW) 11:12:23 145.990 - 145.960
DUCHIFAT 1 18 Nov 11:06:41 11:10:41 44° 71° (ENE) 11:14:42 145.980
PRISM 18 Nov 11:08:35 11:11:04 15° 268° (W) 11:13:34 437.425
EO-79 18 Nov 11:09:29 11:13:41 61° 74° (ENE) 11:17:53 145.935-145.965
NANOSAT C BR1 18 Nov 11:15:04 11:19:14 62° 74° (ENE) 11:23:26 145.865
POLYITAN 1 18 Nov 11:23:46 11:28:02 87° 71° (ENE) 11:32:18 437.675
PCSat 18 Nov 11:35:41 11:39:40 21° 253° (WSW) 11:43:40 145.827
AIST 2D 18 Nov 11:36:26 11:38:57 19° 267° (W) 11:41:29 435.315
BEESAT 3 18 Nov 11:40:28 11:44:08 34° 48° (NE) 11:47:42 437.485
LO-87 18 Nov 11:40:58 11:44:32 89° 328° (NNW) 11:48:04 145.935 - 145.965
AO-85 18 Nov 11:43:49 11:45:33 12° 31° (NNE) 11:47:18 145.980
QB50P2 18 Nov 11:47:02 11:51:08 46° 261° (W) 11:55:15 145.880/145.840
ESTCUBE 1 18 Nov 12:03:12 12:07:45 84° 284° (WNW) 12:12:17 437.505/2401.250
BUGSAT 1 18 Nov 12:12:26 12:16:35 58° 73° (ENE) 12:20:41 437.445
FALCONSAT 3 18 Nov 12:15:32 12:18:01 17° 169° (S) 12:20:31 435.103
Gurwin Techsat 1B 18 Nov 12:23:15 12:27:57 33° 66° (ENE) 12:32:41 435.225
Oscar 19 18 Nov 12:24:24 12:29:15 45° 69° (ENE) 12:34:08 437.125/150
SPROUT 18 Nov 12:25:44 12:29:48 42° 99° (E) 12:33:48 437.525
VELOX 1 18 Nov 12:38:39 12:42:49 37° 98° (E) 12:46:56 145.980
BEESAT 2 18 Nov 12:43:38 12:47:32 44° 50° (NE) 12:51:22 435.950
DUCHIFAT 1 18 Nov 12:43:42 12:46:32 17° 268° (W) 12:49:24 145.980
EO-79 18 Nov 12:47:53 12:49:49 13° 270° (W) 12:51:45 145.935-145.965
NANOSAT C BR1 18 Nov 12:53:31 12:55:20 12° 270° (W) 12:57:10 145.865
50 SAT 18 Nov 12:55:36 12:56:13 10° 91° (E) 12:56:51 437.505
BEESAT 3 18 Nov 13:18:16 13:21:31 24° 246° (WSW) 13:24:41 437.485
AO-85 18 Nov 13:22:24 13:26:56 52° 51° (NE) 13:31:47 145.980
AO-7 18 Nov 13:28:13 13:35:28 36° 56° (ENE) 13:42:45 .
DX 1 18 Nov 13:34:45 13:38:45 33° 97° (E) 13:42:42 434.975-435.025
ESTCUBE 1 18 Nov 13:42:57 13:43:47 10° 302° (WNW) 13:44:37 437.505/2401.250
M-CUBED/EXP-1 PRIME 18 Nov 13:49:50 13:53:18 83° 252° (WSW) 13:57:06 437.505
BUGSAT 1 18 Nov 13:50:13 13:52:16 13° 270° (W) 13:54:19 437.445
FALCONSAT 3 18 Nov 13:53:43 13:56:28 20° 184° (S) 13:59:14 435.103
SPROUT 18 Nov 14:02:21 14:05:23 19° 296° (WNW) 14:08:24 437.525
Gurwin Techsat 1B 18 Nov 14:03:01 14:07:50 35° 263° (W) 14:12:42 435.225
Oscar 19 18 Nov 14:04:41 14:08:46 24° 266° (W) 14:12:52 437.125/150
ITAMSAT 1 18 Nov 14:10:11 14:14:37 29° 64° (ENE) 14:19:06 435.822/435.867
O/OREOS (USA 219) 18 Nov 14:15:24 14:19:59 72° 111° (ESE) 14:24:36 437.305
VELOX 1 18 Nov 14:15:30 14:19:03 24° 295° (WNW) 14:22:35 145.980
BEESAT 2 18 Nov 14:22:04 14:24:57 19° 248° (WSW) 14:27:47 435.950
UKube-1 18 Nov 14:23:35 14:27:55 71° 102° (ESE) 14:32:14 .
50 SAT 18 Nov 14:25:28 14:28:34 41° 287° (WNW) 14:31:37 437.505
MOZHAYETS 4 18 Nov 14:54:20 14:58:17 28° 95° (E) 15:02:13
AO-85 18 Nov 15:03:23 15:07:07 23° 247° (WSW) 15:11:01 145.980
DX 1 18 Nov 15:11:11 15:14:46 25° 294° (WNW) 15:18:21 434.975-435.025
AO-7 18 Nov 15:19:42 15:27:50 60° 256° (WSW) 15:36:03 .
FALCONSAT 3 18 Nov 15:33:28 15:34:50 12° 199° (SSW) 15:36:11 435.103
BEESAT 18 Nov 15:40:45 15:45:29 62° 102° (ESE) 15:50:11 436.000
ITUPSAT 1 18 Nov 15:48:14 15:53:00 72° 103° (ESE) 15:57:44 437.325
ITAMSAT 1 18 Nov 15:49:03 15:53:56 40° 262° (W) 15:58:51 435.822/435.867
O/OREOS (USA 219) 18 Nov 15:57:07 15:59:57 16° 311° (NW) 16:02:46 437.305
UKube-1 18 Nov 16:01:18 16:03:22 13° 300° (WNW) 16:05:25 .
DOVE 4 18 Nov 16:05:38 16:10:27 53° 72° (ENE) 16:15:32 437.250
YUBILEINY 18 Nov 16:06:21 16:14:24 37° 69° (ENE) 16:22:22 435.215
XW-2F 18 Nov 16:17:31 16:18:22 11° 62° (ENE) 16:19:12 145.980 - 146.000
NO-84 18 Nov 16:25:33 16:29:15 57° 136° (SE) 16:33:14 435.350 FM
MOZHAYETS 4 18 Nov 16:31:24 16:35:25 31° 292° (WNW) 16:39:25
CUBESAT XI-V 18 Nov 16:33:55 16:38:37 71° 102° (ESE) 16:43:18 437.345
HO-68 18 Nov 16:47:19 16:52:31 22° 54° (NE) 16:57:44 435.675
KAITUO 1B 18 Nov 16:48:58 16:51:34 19° 66° (ENE) 16:54:11 145.475/437.950
XW-2D 18 Nov 16:54:57 16:58:14 30° 70° (ENE) 17:01:34 145.860 - 145.880
CUTE-I 18 Nov 16:58:31 17:03:24 37° 67° (ENE) 17:08:19 437.470
KKS-1 18 Nov 17:08:54 17:13:05 37° 98° (E) 17:17:12 437.445
XW-2B 18 Nov 17:09:22 17:12:54 43° 72° (ENE) 17:16:28 145.730 - 145.750
BEESAT 18 Nov 17:19:44 17:22:46 17° 299° (WNW) 17:25:47 436.000
AO-7 18 Nov 17:21:02 17:22:19 10° 276° (W) 17:23:37 .
ITUPSAT 1 18 Nov 17:27:35 17:30:14 15° 301° (WNW) 17:32:54 437.325
LilacSat-2 18 Nov 17:32:36 17:36:21 87° 256° (WSW) 17:40:08 437.200
XW-2C 18 Nov 17:34:33 17:38:17 89° 257° (WSW) 17:42:03 145.795 - 145.815
NUDT-PHONESAT 18 Nov 17:37:52 17:41:29 68° 75° (ENE) 17:45:07 437.300
STARS 18 Nov 17:42:07 17:46:07 33° 97° (E) 17:50:05 437.465
DOVE 4 18 Nov 17:44:48 17:48:28 20° 270° (W) 17:52:17 437.250
XW-2F 18 Nov 17:48:15 17:51:56 64° 259° (W) 17:55:39 145.980 - 146.000
UWE-3 18 Nov 17:58:12 18:00:45 15° 63° (ENE) 18:03:17 435.000/436.395/437.385
YUBILEINY 18 Nov 18:03:00 18:11:32 55° 270° (W) 18:20:01 435.215
NO-84 18 Nov 18:03:16 18:06:50 31° 337° (NNW) 18:10:35 435.350 FM
CUTE 1.7 + AOD 2 18 Nov 18:04:58 18:08:58 45° 72° (ENE) 18:12:59 437.475
CUBESAT XI-V 18 Nov 18:12:51 18:15:24 15° 299° (WNW) 18:17:59 437.345
XW-2A 18 Nov 18:16:11 18:18:10 15° 66° (ENE) 18:20:11 145.665 - 145.685
KAITUO 1B 18 Nov 18:22:02 18:25:20 31° 263° (W) 18:28:40 145.475/437.950
CUBEBUG 2 18 Nov 18:28:59 18:33:28 51° 73° (ENE) 18:37:50 437.445
XW-2D 18 Nov 18:29:44 18:32:28 19° 267° (W) 18:35:13 145.860 - 145.880
HO-68 18 Nov 18:32:12 18:39:25 85° 255° (WSW) 18:46:41 435.675
RS-15 18 Nov 18:36:32 18:47:52 46° 109° (ESE) 18:59:09 29.354- 29.394
CUTE-I 18 Nov 18:38:44 18:43:28 32° 264° (W) 18:48:15 437.470
SEEDS 18 Nov 18:41:20 18:45:28 70° 74° (ENE) 18:49:38 437.485
XW-2B 18 Nov 18:45:20 18:47:18 14° 269° (W) 18:49:17 145.730 - 145.750
KKS-1 18 Nov 18:45:52 18:49:25 24° 295° (WNW) 18:52:58 437.445
AO-73 18 Nov 18:47:32 18:50:51 22° 66° (ENE) 18:54:08 145.935
AAUSAT CUBESAT 2 18 Nov 18:57:38 19:01:34 46° 72° (ENE) 19:05:33 437.432
FO-29 18 Nov 18:59:26 19:00:53 11° 79° (E) 19:02:18 435.910
Oscar 11 18 Nov 19:07:15 19:10:42 24° 67° (ENE) 19:14:10 .
STARS 18 Nov 19:18:41 19:22:19 25° 294° (WNW) 19:25:53 437.465
ZACube-1 18 Nov 19:29:32 19:33:52 68° 74° (ENE) 19:38:07 437.345
STRAND 1 18 Nov 19:30:04 19:35:01 47° 99° (E) 19:39:56 437.568
UWE-3 18 Nov 19:32:19 19:36:46 61° 259° (W) 19:41:06 435.000/436.395/437.385
NO-84 18 Nov 19:42:13 19:45:13 19° 358° (N) 19:48:16 435.350 FM
CUTE 1.7 + AOD 2 18 Nov 19:42:20 19:45:02 17° 269° (W) 19:47:45 437.475
XW-2A 18 Nov 19:47:37 19:50:37 31° 263° (W) 19:53:38 145.665 - 145.685
DELFI C3 18 Nov 19:57:48 20:00:24 17° 65° (ENE) 20:03:01 145.870
CUBEBUG 2 18 Nov 20:07:16 20:10:19 17° 269° (W) 20:13:20 437.445
Max Valier Satellite 18 Nov 20:07:19 20:09:13 14° 64° (ENE) 20:11:07 145.860
EO-88 18 Nov 20:13:25 20:14:36 11° 63° (ENE) 20:15:47 145.990 - 145.960
SEEDS 18 Nov 20:20:41 20:21:37 11° 272° (W) 20:22:33 437.485
AO-73 18 Nov 20:22:53 20:26:54 36° 263° (W) 20:30:51 145.935
HO-68 18 Nov 20:24:00 20:28:08 16° 272° (W) 20:32:18 435.675
AAUSAT CUBESAT 2 18 Nov 20:34:42 20:37:16 16° 269° (W) 20:39:50 437.432
FO-29 18 Nov 20:39:44 20:47:31 58° 99° (E) 20:54:56 435.910
Oscar 11 18 Nov 20:42:48 20:46:41 33° 264° (W) 20:50:36 .
RS-15 18 Nov 20:47:47 21:00:01 64° 313° (NW) 21:12:10 29.354- 29.394
UNISAT 6 18 Nov 20:55:24 20:56:45 11° 88° (E) 20:58:06 437.425
TIGRISAT 18 Nov 21:00:26 21:01:57 12° 89° (E) 21:03:29 435.000
ZACube-1 18 Nov 21:08:57 21:10:34 12° 271° (W) 21:12:10 437.345
STRAND 1 18 Nov 21:09:51 21:13:54 24° 297° (WNW) 21:17:56 437.568
nSIGHT-1 18 Nov 21:11:50 21:13:48 15° 133° (SE) 21:15:46 .
NO-84 18 Nov 21:20:04 21:23:41 26° 19° (NNE) 21:27:19 435.350 FM
ESTCUBE 1 18 Nov 21:30:13 21:32:12 13° 60° (ENE) 21:34:11 437.505/2401.250
DELFI C3 18 Nov 21:31:03 21:34:49 42° 262° (W) 21:38:38 145.870
Max Valier Satellite 18 Nov 21:39:08 21:42:39 45° 261° (W) 21:46:11 145.860
EO-88 18 Nov 21:44:12 21:47:46 56° 260° (W) 21:51:20 145.990 - 145.960
ISS 18 Nov 21:45:36 21:48:22 25° 138° (SE) 21:51:08 437.550
LO-87 18 Nov 22:17:56 22:21:23 43° 72° (ENE) 22:24:50 145.935 - 145.965
SO-50 18 Nov 22:21:22 22:25:32 40° 118° (ESE) 22:29:45 436.795
FO-29 18 Nov 22:25:11 22:32:06 35° 298° (WNW) 22:38:50 435.910
UNISAT 6 18 Nov 22:29:40 22:33:58 69° 285° (WNW) 22:38:11 437.425
TIGRISAT 18 Nov 22:34:51 22:39:08 66° 285° (WNW) 22:43:19 435.000
O/OREOS (USA 219) 18 Nov 22:45:13 22:48:50 22° 54° (NE) 22:52:23 437.305
PRISM 18 Nov 22:45:59 22:50:08 62° 102° (ESE) 22:54:15 437.425
nSIGHT-1 18 Nov 22:46:28 22:49:41 76° 331° (NNW) 22:52:53 .
NO-84 18 Nov 22:57:14 23:01:32 87° 42° (NE) 23:05:46 435.350 FM
AIST 2D 18 Nov 22:58:38 23:01:38 25° 96° (E) 23:04:36 435.315
ESTCUBE 1 18 Nov 23:03:54 23:08:22 77° 257° (WSW) 23:12:53 437.505/2401.250
RS-15 18 Nov 23:05:02 23:15:33 31° 343° (NNW) 23:25:50 29.354- 29.394
POLYITAN 1 18 Nov 23:08:43 23:10:28 12° 90° (E) 23:12:12 437.675
SPROUT 18 Nov 23:20:10 23:24:10 39° 70° (ENE) 23:28:10 437.525
ISS 18 Nov 23:21:29 23:24:41 50° 335° (NNW) 23:27:53 437.550
QB50P2 18 Nov 23:30:25 23:33:51 24° 94° (E) 23:37:14 145.880/145.840
VELOX 1 18 Nov 23:37:05 23:41:13 40° 70° (ENE) 23:45:24 145.980
LO-87 18 Nov 23:53:15 23:54:59 13° 269° (W) 23:56:44 145.935 - 145.965
SO-50 19 Nov 00:02:12 00:06:06 28° 317° (NW) 00:10:03 436.795
PRISM 19 Nov 00:22:46 00:24:54 14° 299° (WNW) 00:27:00 437.425
nSIGHT-1 19 Nov 00:23:34 00:26:17 24° 349° (N) 00:28:59 .
DUCHIFAT 1 19 Nov 00:24:06 00:28:16 64° 101° (ESE) 00:32:23 145.980
O/OREOS (USA 219) 19 Nov 00:24:06 00:28:27 44° 253° (WSW) 00:32:44 437.305
EO-79 19 Nov 00:27:54 00:32:07 89° 279° (W) 00:36:18 145.935-145.965
DX 1 19 Nov 00:31:32 00:35:31 36° 69° (ENE) 00:39:33 434.975-435.025
AIST 2D 19 Nov 00:31:59 00:34:39 21° 292° (WNW) 00:37:20 435.315
NANOSAT C BR1 19 Nov 00:33:02 00:37:15 88° 291° (WNW) 00:41:25 145.865
PCSat 19 Nov 00:34:43 00:39:42 39° 112° (ESE) 00:44:42 145.827
Oscar 19 19 Nov 00:35:47 00:38:18 14° 89° (E) 00:40:50 437.125/150
NO-84 19 Nov 00:35:48 00:38:23 16° 235° (SW) 00:40:56 435.350 FM
Gurwin Techsat 1B 19 Nov 00:40:29 00:41:24 10° 86° (E) 00:42:19 435.225
POLYITAN 1 19 Nov 00:42:29 00:46:39 62° 286° (WNW) 00:50:45 437.675
50 SAT 19 Nov 00:53:29 00:56:41 67° 75° (ENE) 00:59:56 437.505
SPROUT 19 Nov 00:57:01 01:00:11 20° 267° (W) 01:03:22 437.525
ISS 19 Nov 00:59:00 01:01:41 23° 355° (N) 01:04:21 437.550
QB50P2 19 Nov 01:05:55 01:09:39 31° 291° (WNW) 01:13:22 145.880/145.840
VELOX 1 19 Nov 01:14:27 01:17:48 21° 267° (W) 01:21:11 145.980
BEESAT 19 Nov 01:14:28 01:16:10 12° 57° (ENE) 01:17:51 436.000
UKube-1 19 Nov 01:19:05 01:23:22 73° 74° (ENE) 01:27:43 .
ITUPSAT 1 19 Nov 01:21:33 01:23:54 14° 58° (ENE) 01:26:14 437.325
RS-15 19 Nov 01:22:25 01:32:54 32° 18° (NNE) 01:42:56 29.354- 29.394
BUGSAT 1 19 Nov 01:27:36 01:31:40 80° 102° (ESE) 01:35:41 437.445
MOZHAYETS 4 19 Nov 01:57:34 02:01:39 33° 68° (ENE) 02:05:44
nSIGHT-1 19 Nov 02:00:31 02:03:13 24° 10° (N) 02:05:53 .
DUCHIFAT 1 19 Nov 02:01:24 02:03:24 13° 299° (WNW) 02:05:23 145.980
CUBESAT XI-V 19 Nov 02:05:44 02:06:28 10° 57° (ENE) 02:07:13 437.345
DX 1 19 Nov 02:08:20 02:11:47 23° 266° (W) 02:15:16 434.975-435.025
Oscar 19 19 Nov 02:13:03 02:18:13 79° 285° (WNW) 02:23:23 437.125/150
Gurwin Techsat 1B 19 Nov 02:16:48 02:22:09 81° 104° (ESE) 02:27:29 435.225
PCSat 19 Nov 02:18:09 02:23:07 36° 311° (NW) 02:28:07 145.827
ISS 19 Nov 02:35:55 02:38:50 29° 15° (NNE) 02:41:44 437.550
BEESAT 19 Nov 02:48:23 02:53:10 86° 77° (ENE) 02:57:58 436.000
ITUPSAT 1 19 Nov 02:56:16 03:01:04 82° 258° (WSW) 03:05:52 437.325
UKube-1 19 Nov 02:58:36 02:59:53 11° 271° (W) 03:01:10 .
M-CUBED/EXP-1 PRIME 19 Nov 02:59:39 03:04:04 56° 106° (ESE) 03:08:37 437.505
BUGSAT 1 19 Nov 03:05:42 03:06:22 10° 301° (WNW) 03:07:04 437.445
BEESAT 3 19 Nov 03:08:15 03:11:50 32° 116° (ESE) 03:15:26 437.485
AO-7 19 Nov 03:19:17 03:27:09 43° 99° (E) 03:34:58 .
MOZHAYETS 4 19 Nov 03:34:57 03:38:49 27° 265° (W) 03:42:40
RS-15 19 Nov 03:36:08 03:48:07 68° 49° (NE) 03:59:23 29.354- 29.394
nSIGHT-1 19 Nov 03:36:38 03:39:50 72° 29° (NNE) 03:43:00 .
CUBESAT XI-V 19 Nov 03:38:27 03:43:02 82° 75° (ENE) 03:47:40 437.345
Oscar 19 19 Nov 03:54:48 03:56:41 12° 304° (NW) 03:58:33 437.125/150
Gurwin Techsat 1B 19 Nov 03:58:18 04:01:25 16° 302° (WNW) 04:04:32 435.225
ITAMSAT 1 19 Nov 03:59:43 04:04:55 63° 102° (ESE) 04:10:03 435.822/435.867
DOVE 4 19 Nov 04:04:28 04:07:16 14° 87° (E) 04:10:00 437.250
KKS-1 19 Nov 04:08:08 04:12:22 42° 70° (ENE) 04:16:37 437.445
ISS 19 Nov 04:12:17 04:15:32 70° 213° (SSW) 04:18:46 437.550
BEESAT 2 19 Nov 04:13:03 04:16:53 45° 119° (ESE) 04:20:47 435.950
BEESAT 19 Nov 04:30:25 04:31:34 11° 272° (W) 04:32:43 436.000
M-CUBED/EXP-1 PRIME 19 Nov 04:34:56 04:38:04 19° 302° (WNW) 04:41:17 437.505
STARS 19 Nov 04:39:53 04:43:57 37° 69° (ENE) 04:48:03 437.465
BEESAT 3 19 Nov 04:45:53 04:49:22 28° 315° (NW) 04:52:53 437.485
YUBILEINY 19 Nov 05:09:40 05:17:30 39° 85° (E) 05:25:22 435.215
SO-50 19 Nov 05:11:30 05:13:45 13° 31° (NNE) 05:16:01 436.795
AO-7 19 Nov 05:12:05 05:19:57 48° 299° (WNW) 05:27:50 .
STRAND 1 19 Nov 05:12:12 05:14:08 12° 56° (NE) 05:16:05 437.568
nSIGHT-1 19 Nov 05:13:41 05:15:43 16° 226° (SW) 05:17:45 .
CUTE-I 19 Nov 05:15:42 05:17:48 12° 87° (E) 05:19:54 437.470
AO-85 19 Nov 05:18:39 05:22:33 86° 120° (ESE) 05:26:38 145.980
CUBESAT XI-V 19 Nov 05:19:57 05:21:00 11° 273° (W) 05:22:04 437.345
XW-2F 19 Nov 05:20:24 05:21:37 11° 90° (E) 05:22:51 145.980 - 146.000
ITAMSAT 1 19 Nov 05:40:15 05:43:52 19° 300° (WNW) 05:47:30 435.822/435.867
DOVE 4 19 Nov 05:40:16 05:45:33 76° 285° (WNW) 05:50:34 437.250
KKS-1 19 Nov 05:45:45 05:49:05 20° 267° (W) 05:52:26 437.445
